Theta_e
303 303 303 303 304 304 305 305 305 304 303 299 296 298 297 295 293 303 303 306 305 299 293 294 293 294 295 295 295 295 296 294 295 293 294 293 292 292 291 292 291 291 291 289 289 290 291 290 291 291 293 294 297 296 296 295 296 294 292 292 293 305 289 286 285 289 291 292 292 292 290 291 291 290 288 289 291 291 292 292 291 286 284 285 285 282 287
303 303 303 303 304 304 304 305 305 304 303 299 298 295 293 294 296 298 303 305 304 295 286 287 286 291 294 294 294 294 296 293 294 293 291 291 291 291 291 291 291 290 292 291 289 291 288 290 291 291 293 294 295 293 296 297 297 296 295 296 300 290 290 289 283 283 285 288 291 290 292 291 288 288 288 286 288 288 289 289 290 286 286 287 286 280 286
303 303 303 303 303 304 304 305 305 304 304 302 297 295 293 294 296 297 300 303 301 291 291 289 286 288 289 290 290 291 292 292 292 293 291 291 289 290 290 291 292 291 292 291 290 290 289 290 290 292 292 292 296 293 298 300 300 304 303 300 296 289 286 287 281 278 276 277 278 281 285 287 287 287 288 287 288 289 291 286 287 284 286 284 286 285 289
302 302 303 303 303 304 304 304 304 304 303 302 298 293 295 292 287 291 295 296 296 295 298 292 290 288 288 286 288 290 289 292 293 293 291 291 290 289 289 289 291 290 291 290 289 289 291 291 289 289 290 292 293 293 292 297 301 306 304 298 296 286 287 286 288 286 283 283 284 286 287 288 286 286 287 287 286 287 291 291 286 285 285 285 287 289 290
302 302 302 303 303 304 304 304 304 303 303 302 295 294 294 292 288 285 286 293 295 291 293 290 290 288 290 285 287 287 288 289 291 293 290 291 290 289 288 287 290 289 291 288 288 288 289 290 289 287 288 289 291 293 292 292 297 302 302 299 291 288 286 287 287 285 284 285 285 287 288 285 285 287 288 287 287 287 292 287 286 290 287 283 289 287 292
302 302 302 303 303 303 304 304 304 302 302 303 300 293 292 288 287 291 292 287 284 286 287 289 288 291 290 286 289 286 286 287 285 290 292 291 291 289 288 288 286 285 288 290 286 287 287 288 285 289 289 289 291 290 292 290 294 297 293 296 295 287 283 286 287 285 286 287 288 289 288 287 286 286 286 287 287 290 289 284 285 288 287 286 288 288 289
301 301 302 302 303 303 304 304 304 302 301 302 297 292 291 291 290 292 293 286 286 289 288 290 290 288 290 286 287 285 285 284 285 285 288 290 289 289 284 285 286 286 287 289 286 285 286 284 287 287 288 288 289 289 292 293 292 292 294 293 294 291 285 287 287 286 287 287 288 290 289 287 287 286 286 286 289 287 287 285 286 287 288 288 288 288 285
301 301 302 302 303 303 304 304 304 302 300 300 296 291 290 288 287 289 291 290 288 290 291 289 288 286 290 285 286 285 285 284 286 286 286 284 287 289 286 285 286 286 287 288 285 285 287 287 284 287 288 289 289 287 288 287 292 291 291 292 292 293 285 290 288 286 286 287 288 290 289 288 286 287 287 287 287 288 287 287 287 288 287 287 288 287 285
301 301 301 302 303 303 303 304 304 301 300 296 293 292 293 292 292 290 288 285 286 290 289 288 286 285 286 285 286 286 285 285 287 285 288 286 284 286 285 286 287 287 287 286 285 286 286 288 288 288 289 286 289 288 288 289 288 289 290 291 293 293 286 289 288 284 283 287 286 287 288 287 286 285 286 286 286 286 286 284 285 286 286 286 288 286 284
300 301 301 302 303 303 303 304 304 302 299 294 292 291 293 293 292 291 290 284 285 284 286 289 288 283 285 285 286 285 285 287 288 285 288 288 288 287 287 287 287 287 287 285 286 287 288 289 290 290 291 291 291 291 290 289 289 288 289 289 289 289 287 285 286 283 282 283 285 286 287 286 284 284 284 283 283 284 283 284 285 283 285 286 286 285 287
300 301 301 302 302 303 303 304 304 302 298 293 292 291 292 291 290 290 287 285 284 283 284 284 285 285 287 287 285 288 287 287 287 284 283 288 287 289 288 288 288 285 285 287 290 290 290 290 290 291 291 290 291 290 290 289 288 287 289 290 288 290 290 286 288 282 281 282 284 285 283 277 279 284 285 286 285 285 285 282 282 284 286 284 286 286 287
300 301 301 302 303 303 303 304 304 304 300 293 294 293 293 293 289 287 284 283 282 284 284 281 283 285 285 286 287 285 285 286 286 288 285 287 288 290 289 289 289 286 290 292 291 291 290 291 292 292 291 290 290 291 291 290 289 289 288 290 289 288 287 285 285 281 279 282 283 280 274 278 283 286 287 287 287 286 284 284 284 285 286 286 285 285 286
300 301 301 302 302 303 303 304 304 304 303 297 295 292 294 294 291 287 286 284 281 282 282 283 284 285 286 287 287 287 287 287 288 289 288 287 288 289 289 287 287 288 292 290 290 291 289 288 288 287 288 289 289 290 289 289 289 291 290 289 292 285 286 283 282 282 281 280 279 273 276 282 285 286 286 288 288 287 287 283 284 285 285 286 285 285 286
300 300 301 301 302 303 303 304 304 304 304 300 295 294 294 294 293 291 287 283 281 284 282 283 284 284 285 285 285 286 288 287 288 289 288 289 287 288 289 290 290 292 291 290 290 289 286 286 284 285 285 286 287 286 286 287 287 288 288 289 292 291 287 286 280 282 279 279 278 277 280 282 283 283 285 285 284 285 284 279 280 284 284 286 285 285 286
300 300 301 301 302 303 303 303 304 304 304 300 296 295 294 294 293 290 285 288 283 284 285 280 282 284 284 285 285 285 286 285 287 287 287 289 289 289 289 291 293 292 292 291 290 288 284 283 282 281 282 281 278 280 285 284 286 287 288 288 288 290 288 285 284 278 279 278 276 277 277 275 280 284 287 288 288 286 286 284 280 285 285 286 287 286 286
300 300 301 301 302 303 303 304 304 304 304 301 295 294 294 295 292 292 291 287 284 280 283 286 285 284 284 284 284 284 283 283 284 285 287 288 287 289 291 292 293 293 291 288 287 286 283 283 277 277 277 278 281 280 280 284 283 287 287 288 289 288 289 288 286 278 277 277 277 275 275 277 281 284 286 288 288 288 286 284 280 283 285 286 287 286 286
300 300 300 301 302 302 303 303 304 304 304 301 295 294 294 295 294 294 291 288 288 282 287 285 286 285 284 286 287 285 285 283 284 283 282 284 285 285 289 291 294 292 289 289 286 286 283 281 281 281 280 281 279 279 282 281 280 282 286 287 288 286 285 285 282 279 279 279 277 276 275 277 282 285 286 287 287 287 286 278 278 284 286 286 287 287 287
300 300 300 301 301 302 303 303 303 304 304 303 296 295 294 296 294 293 290 287 284 284 289 288 287 286 284 284 284 285 286 286 285 285 284 284 284 285 285 288 287 290 291 286 284 282 279 279 278 278 277 281 282 282 276 280 278 278 280 280 281 281 282 282 279 279 277 278 277 277 278 283 285 285 287 287 287 286 279 276 280 284 286 286 287 287 287
300 300 300 301 301 302 302 303 303 304 304 303 297 293 294 295 295 294 291 288 287 283 288 288 288 288 288 289 287 286 286 285 285 283 282 283 285 285 285 286 287 284 287 283 284 280 279 278 282 281 278 280 283 277 281 278 277 281 281 280 280 279 279 279 280 279 278 278 278 278 279 283 285 287 287 288 285 279 278 281 285 287 286 287 288 288 289
300 300 300 300 301 301 302 303 303 304 304 303 297 292 294 294 295 295 294 287 286 287 289 289 289 288 288 288 287 287 287 287 286 285 283 281 288 286 286 283 287 287 285 286 280 280 279 277 278 281 279 279 281 284 279 278 281 279 280 281 279 278 278 277 277 277 277 277 277 276 274 279 286 286 286 287 282 281 284 286 287 288 288 288 288 289 289
299 300 300 300 300 301 302 302 303 303 304 304 298 293 294 295 296 296 294 293 289 286 288 291 289 290 288 289 291 290 289 285 287 285 285 286 286 284 278 277 283 283 281 281 278 278 279 278 280 279 281 280 281 282 276 277 279 283 282 281 281 282 278 277 278 281 277 276 275 275 280 283 287 286 283 284 286 287 289 288 286 289 290 289 289 289 289
299 299 299 300 300 301 302 302 303 303 304 304 298 293 292 295 296 296 294 294 291 287 290 290 290 293 294 292 293 294 291 290 292 291 288 286 287 286 285 286 285 285 285 286 283 281 283 282 283 280 279 280 283 278 278 277 275 280 283 283 277 283 280 281 278 282 279 278 279 282 285 286 289 289 288 289 291 292 293 292 290 288 289 291 290 290 290
299 299 299 300 300 301 301 302 302 303 303 303 298 293 291 293 294 296 293 293 290 293 292 289 289 290 294 295 293 292 293 292 294 293 292 291 285 287 286 287 286 287 287 287 284 283 284 283 278 283 280 281 278 278 279 280 276 280 278 282 283 285 285 286 285 281 285 286 286 286 286 287 287 289 291 289 289 290 292 291 288 288 288 289 288 288 288
298 299 299 300 300 301 301 302 302 302 303 303 298 293 293 293 293 295 294 291 289 287 290 291 290 287 287 290 294 293 292 293 295 292 291 296 285 284 287 288 288 289 289 288 286 286 284 282 282 283 278 281 282 278 276 276 277 281 280 280 282 284 283 284 282 283 280 276 285 285 285 286 287 287 288 289 289 288 290 289 289 288 289 289 288 288 287
298 299 299 299 300 301 302 302 302 302 303 302 299 295 294 294 294 292 294 287 288 285 282 284 286 291 292 292 291 291 291 292 296 293 293 294 293 288 285 289 290 288 287 289 287 287 283 282 282 281 277 282 283 277 281 279 278 283 278 280 282 281 286 283 281 281 279 279 284 285 286 286 287 288 288 288 289 289 290 290 290 290 289 289 289 290 290
298 299 299 299 300 301 301 302 302 302 302 302 298 293 292 292 294 293 295 291 288 285 284 282 288 294 290 292 292 292 292 291 292 294 294 291 290 295 294 290 289 289 289 286 289 286 282 280 280 281 281 280 285 280 279 282 281 282 281 280 284 283 286 279 282 280 281 283 284 284 286 287 287 288 288 289 290 290 289 290 290 290 290 289 289 289 288
299 299 299 299 300 301 302 302 302 302 302 300 295 292 294 295 293 295 294 292 289 283 284 283 285 288 290 290 292 292 290 292 293 292 292 290 290 291 292 291 292 290 289 289 285 283 281 280 281 281 283 281 284 282 283 282 282 281 280 283 284 283 281 282 282 279 278 280 283 285 280 280 285 287 288 289 289 290 289 289 289 289 288 288 287 287 287
299 299 299 300 300 301 302 302 302 302 302 300 295 294 293 295 295 295 293 294 292 285 283 281 287 291 290 290 291 290 290 292 291 292 290 290 290 290 290 290 291 292 289 288 285 284 282 281 281 280 281 284 282 280 283 282 282 282 282 283 284 283 283 283 280 279 279 284 286 288 287 286 287 289 289 289 289 290 289 289 288 288 288 288 288 287 287
300 299 300 300 300 301 302 302 302 302 302 298 293 296 295 295 295 297 297 294 292 288 285 286 289 289 285 288 292 292 291 292 292 291 290 289 290 290 290 289 290 287 286 284 282 283 282 282 282 283 284 285 284 279 281 277 276 276 281 284 285 286 286 286 285 285 285 286 287 288 287 286 287 288 289 289 290 291 289 289 289 289 289 288 288 287 286
300 300 300 300 301 301 302 302 302 302 301 294 293 289 287 293 294 297 299 297 295 293 285 281 281 284 288 289 292 290 290 292 290 292 292 290 290 290 289 290 289 289 288 285 284 281 282 283 281 284 286 288 282 278 277 278 277 281 285 285 286 286 285 286 286 286 285 287 287 288 289 288 288 288 289 289 290 291 290 289 289 289 288 288 287 287 286
300 300 300 301 301 301 302 302 302 302 298 291 290 284 281 282 291 297 297 297 293 294 283 284 283 285 286 291 288 289 289 290 291 290 290 289 288 288 287 289 288 290 288 284 284 282 282 281 281 284 286 287 283 279 279 278 277 280 285 287 287 287 287 286 286 287 288 287 287 287 288 288 289 289 289 289 289 290 289 289 290 289 289 288 287 286 286
300 300 300 301 301 301 301 302 302 300 297 294 293 290 290 291 294 296 299 297 295 295 286 282 281 283 282 285 292 289 289 288 288 289 290 290 290 289 289 288 287 290 288 284 281 281 282 280 282 284 286 285 282 278 281 279 276 279 285 286 287 287 287 288 288 287 287 289 289 287 287 287 288 288 287 289 289 290 290 289 289 289 288 288 287 287 286
300 300 300 301 301 301 301 302 302 300 298 297 298 300 299 300 301 300 300 297 295 286 286 282 279 280 281 285 288 290 289 291 292 288 289 289 289 288 287 288 288 287 288 285 282 282 282 280 280 281 283 285 281 279 280 278 281 286 286 287 286 287 287 287 287 287 287 287 289 285 284 286 288 289 289 290 289 289 289 288 288 288 288 286 286 286 286
300 300 300 300 301 301 302 302 302 300 297 296 294 294 296 300 300 300 295 294 291 287 284 282 278 280 282 286 284 288 290 287 285 286 284 289 286 287 284 287 287 283 284 284 282 282 282 282 282 281 284 281 280 279 275 280 285 285 284 283 285 286 287 288 288 288 287 288 288 288 288 288 289 289 288 288 288 288 288 288 287 286 286 286 285 285 286
300 300 300 300 300 301 301 298 294 295 292 292 292 295 296 301 299 295 294 294 286 281 281 281 280 278 280 281 278 286 288 287 285 285 283 286 287 286 286 284 283 282 283 286 281 279 280 281 284 280 278 281 279 275 277 282 284 283 283 284 285 287 287 286 287 288 287 287 288 287 287 288 288 287 287 287 288 287 287 286 286 286 285 285 285 285 286
300 300 299 300 300 299 297 298 295 293 292 291 293 296 299 300 297 293 294 293 291 281 277 278 279 279 278 275 277 283 288 286 285 285 284 284 286 286 284 283 280 281 284 281 280 281 280 283 281 277 277 276 276 279 282 285 285 285 285 286 287 288 288 288 288 286 286 287 287 287 287 288 288 287 288 288 287 286 286 286 284 283 285 285 285 285 286
299 298 298 298 296 297 290 289 293 293 292 294 296 300 300 299 297 298 295 295 295 293 287 278 280 280 281 280 279 283 287 282 285 284 285 284 282 282 283 282 279 281 280 280 279 279 282 285 280 275 275 276 278 284 285 285 285 286 285 286 287 287 287 288 288 288 286 286 286 286 287 287 287 287 287 287 287 287 286 286 286 285 284 284 285 285 285
297 296 293 294 291 285 286 287 290 294 298 298 298 295 293 292 286 286 286 285 288 291 284 286 281 283 283 282 280 286 287 282 284 282 282 281 281 281 280 280 279 280 276 275 278 284 280 277 275 276 276 283 284 283 284 284 285 285 286 286 287 287 288 288 288 288 286 285 285 285 285 286 286 287 287 287 287 286 286 288 287 287 287 287 286 286 286
292 290 288 287 287 283 285 290 296 298 297 295 294 289 286 284 283 282 282 282 283 284 283 283 283 284 284 283 284 289 285 283 281 282 280 283 281 279 281 277 279 279 274 274 278 283 276 275 272 273 276 280 282 286 285 284 284 284 284 286 287 287 288 288 290 289 287 286 287 288 288 286 286 287 287 287 288 288 288 287 287 288 288 288 287 287 286
291 287 283 283 283 287 293 294 297 294 294 287 284 284 283 283 282 280 281 280 281 281 282 282 285 285 285 284 283 283 288 285 281 280 280 281 285 279 278 279 278 276 271 270 276 282 277 273 271 272 276 280 282 285 284 285 285 285 285 286 287 287 288 289 289 290 290 290 289 290 290 290 290 289 288 288 288 287 287 287 288 288 288 288 287 286 285
289 287 285 282 288 291 293 295 294 290 286 283 282 280 279 279 281 280 279 276 276 279 283 285 284 284 284 283 285 282 288 289 286 284 283 280 284 283 278 274 278 275 270 271 278 277 275 272 271 272 277 282 284 284 283 285 285 285 286 286 287 288 288 288 289 288 288 288 288 288 287 288 288 289 289 289 289 288 286 285 287 288 288 287 287 286 286
292 292 292 293 294 294 293 291 285 285 283 282 278 275 276 278 280 280 279 277 277 278 284 284 281 283 284 286 286 286 285 287 285 283 282 278 282 279 275 275 276 272 270 276 277 275 275 271 269 272 278 283 283 283 283 285 286 286 286 286 287 287 287 288 288 287 288 289 289 289 289 289 288 288 288 288 289 289 288 286 287 288 288 288 288 287 286
297 297 296 291 290 288 286 284 283 280 275 274 272 274 275 275 277 276 278 279 279 282 283 286 286 287 286 286 285 286 285 287 285 284 282 279 281 279 275 272 271 270 275 278 276 271 270 270 269 277 282 284 284 283 284 284 285 285 286 287 287 288 288 289 289 289 288 288 289 290 289 288 289 289 289 289 288 287 287 288 288 289 289 288 287 287 286
294 293 289 285 284 283 284 276 283 281 276 273 272 271 271 274 277 276 276 281 282 283 284 283 284 283 281 286 284 284 285 287 286 283 281 280 279 274 272 271 273 278 279 275 273 272 273 271 276 281 283 283 283 283 285 284 283 285 286 287 286 286 287 287 288 288 288 287 288 288 288 289 289 288 287 288 288 289 289 289 289 288 288 287 287 287 288
287 282 279 278 278 281 280 272 278 276 273 274 274 272 273 274 275 274 279 282 283 283 285 285 284 284 283 286 287 286 285 283 285 281 277 280 276 273 272 274 275 274 274 272 269 270 271 272 280 281 282 282 285 283 282 283 284 285 287 287 287 287 287 288 288 289 289 289 289 288 288 289 288 288 287 288 288 289 289 289 290 288 288 287 287 287 287
282 281 279 274 272 277 275 271 272 274 276 277 276 280 280 281 281 282 284 284 284 285 285 285 284 285 284 286 283 282 282 282 281 281 279 277 274 273 277 277 277 274 269 269 267 270 274 278 281 282 282 283 283 282 281 282 283 284 286 287 288 288 288 289 289 289 289 289 288 288 289 288 289 288 288 289 288 288 288 289 289 288 288 287 287 287 287
283 281 278 276 272 276 277 273 275 278 281 282 283 283 284 284 284 284 285 285 285 285 285 285 285 285 283 283 283 283 282 281 280 281 280 275 274 277 279 276 270 268 268 267 267 270 274 279 280 280 280 280 281 281 283 283 283 284 286 288 288 289 288 288 288 288 289 288 288 288 289 289 288 289 289 288 289 289 288 288 288 287 287 288 288 287 287
280 281 279 275 273 275 275 278 280 282 282 283 283 282 283 283 284 285 286 285 286 285 285 285 283 283 282 285 283 280 280 280 279 279 280 278 280 276 272 271 270 269 270 271 274 276 279 282 282 283 283 282 281 282 284 284 284 284 285 286 288 289 288 288 288 288 288 288 288 289 289 289 289 288 288 289 290 290 289 289 289 288 287 287 286 286 287
283 279 277 274 275 276 278 280 282 282 283 283 282 283 284 284 284 285 286 285 285 286 286 285 282 282 280 283 280 279 278 281 276 276 280 277 274 270 271 269 268 269 273 275 279 281 282 284 284 282 282 283 284 284 285 285 285 285 285 286 287 288 288 288 289 289 288 288 289 289 289 289 289 289 289 288 288 289 291 290 289 288 287 287 286 286 286
279 277 279 277 279 279 279 281 282 281 282 282 283 283 282 283 284 286 287 286 286 286 284 284 284 282 281 281 277 278 277 279 279 278 275 273 273 273 272 270 270 272 277 279 279 282 284 285 284 283 284 285 286 286 286 287 283 284 285 285 286 287 288 288 288 288 288 288 288 289 289 289 288 288 288 289 290 290 289 289 289 288 287 287 287 287 286
285 282 280 282 281 279 280 276 277 276 279 282 283 283 282 284 284 286 288 287 287 285 283 281 281 281 280 279 276 274 277 280 278 275 275 274 274 274 273 273 276 276 280 283 284 284 284 284 284 285 285 286 288 289 288 287 286 286 286 285 285 286 287 288 288 289 288 288 288 285 287 288 289 290 290 290 289 289 289 289 289 289 288 287 286 287 287
282 278 280 281 283 283 283 283 282 283 283 284 284 285 284 284 285 287 287 287 285 282 280 281 281 279 277 276 278 280 282 279 276 274 273 276 276 275 274 277 281 282 282 283 285 286 285 285 284 283 285 286 287 288 289 288 287 287 286 285 285 285 285 287 288 288 289 288 288 288 289 289 289 289 288 288 288 288 288 289 290 290 289 288 288 287 288
Wind_Speed
26 27 26 27 30 29 28 29 28 26 24 8 6 5 3 4 2 3 6 2 3 2 1 1 1 1 1 4 3 2 1 2 1 2 2 1 2 1 1 2 3 3 3 0 2 2 2 1 2 2 2 3 3 2 8 5 2 2 2 1 1 2 2 3 3 0 1 3 2 1 2 3 2 6 3 1 3 1 2 1 5 4 3 3 1 2 2
26 27 27 27 30 30 29 28 28 25 21 8 5 2 3 0 1 4 8 8 3 4 1 1 2 3 4 1 1 0 1 3 2 2 3 2 2 1 1 1 1 1 2 2 3 1 3 1 2 3 1 3 0 4 4 5 4 4 1 1 2 1 2 2 3 1 1 0 2 1 0 3 3 2 2 3 2 4 3 5 1 2 4 1 5 5 2
26 27 26 27 30 30 29 29 28 25 20 9 1 2 0 1 2 1 6 9 6 4 1 1 1 3 3 3 6 7 3 2 2 1 3 2 1 1 1 1 3 1 1 3 1 4 2 2 4 2 1 2 1 3 3 8 5 3 4 3 4 5 1 1 5 4 5 6 5 4 3 3 1 1 2 3 1 8 5 3 3 3 4 2 3 1 3
26 27 25 27 30 31 30 29 29 26 21 8 2 1 1 4 1 5 6 6 6 6 2 0 1 0 3 3 3 2 2 0 3 3 5 2 2 3 2 1 2 2 1 3 3 5 5 1 2 3 2 2 3 2 5 4 5 3 7 4 3 4 1 3 2 2 1 4 3 4 3 0 4 3 6 5 4 6 2 3 2 4 4 4 1 1 7
26 26 25 27 28 30 30 29 29 29 23 13 4 3 3 2 4 2 4 5 5 3 5 7 5 1 2 2 5 6 4 4 1 4 2 5 1 3 6 4 1 1 3 3 3 2 2 4 5 5 2 2 2 5 4 2 10 4 1 4 5 4 3 3 7 11 6 0 2 3 3 4 5 4 4 3 5 6 1 2 2 3 7 3 3 3 6
25 25 25 26 29 30 30 28 29 29 25 16 3 4 4 4 1 1 1 2 5 6 7 10 5 10 2 4 4 7 6 9 4 6 4 2 5 0 1 10 8 2 2 3 3 5 3 5 2 2 3 2 5 2 5 7 8 4 3 2 6 3 3 3 6 7 7 5 5 5 7 6 5 5 3 6 7 7 4 1 3 1 1 1 5 4 5
24 25 24 25 27 28 28 28 28 28 26 15 3 5 3 3 0 1 2 1 2 3 2 8 6 11 10 2 9 9 10 9 6 2 5 4 8 7 3 8 11 7 0 1 4 4 1 3 3 3 4 5 3 4 5 1 7 7 3 5 2 6 1 1 0 7 4 6 6 8 10 4 7 10 8 5 8 7 7 6 5 2 4 5 8 10 8
24 24 24 24 26 28 28 29 27 27 25 9 8 7 2 4 3 2 4 4 2 3 4 5 8 9 11 4 9 6 9 9 7 6 6 2 4 6 6 6 6 10 10 5 5 5 5 4 3 3 1 1 5 2 2 5 5 5 2 2 2 4 3 6 2 3 2 6 1 5 9 6 5 4 5 5 4 6 6 5 4 7 9 6 6 10 8
24 24 23 24 24 27 27 27 26 25 21 7 7 3 4 1 0 0 1 4 6 4 5 4 5 5 9 8 7 5 9 6 5 7 5 7 3 5 3 3 3 4 8 11 8 3 3 3 2 1 2 3 1 1 1 0 3 6 4 4 2 4 3 2 2 4 1 3 5 4 7 8 5 2 4 6 6 3 3 1 4 3 6 5 6 5 3
23 22 22 23 23 25 26 26 26 22 14 4 2 4 2 0 1 1 1 3 5 4 4 4 1 7 4 4 7 5 9 7 3 3 5 6 7 4 4 4 1 4 10 10 7 6 5 6 6 4 3 2 2 2 2 2 2 2 2 2 2 1 7 4 3 3 2 1 1 4 5 4 5 3 1 2 1 3 4 4 5 4 4 5 3 3 6
22 22 21 22 23 24 26 26 23 21 10 7 4 3 4 4 2 2 1 4 3 5 2 7 7 1 2 3 3 8 8 11 10 5 2 5 9 7 4 6 2 3 6 4 7 6 8 7 5 2 3 2 1 1 3 6 4 2 1 2 2 1 7 5 2 3 2 3 5 3 4 3 3 4 4 3 1 2 3 3 5 5 2 1 3 8 6
22 22 21 22 22 24 25 24 23 21 9 2 1 2 3 1 2 1 3 5 2 4 5 5 4 3 5 4 1 2 5 8 7 4 3 4 4 6 7 9 5 2 3 2 6 6 3 2 4 1 2 4 3 6 8 9 6 3 2 1 4 4 3 3 1 4 3 5 7 5 3 3 4 5 3 4 3 9 12 8 8 7 7 11 12 11 10
21 22 21 21 22 23 24 24 24 22 16 2 3 6 3 1 1 2 4 4 4 6 3 3 3 3 3 5 4 2 2 4 4 6 0 4 6 8 7 5 5 6 11 12 9 0 4 0 2 2 3 3 4 9 13 11 9 5 5 4 3 2 3 2 3 2 3 2 3 4 2 3 4 2 4 5 4 3 6 11 9 7 6 4 12 11 10
20 21 20 21 22 22 23 24 23 23 20 7 3 4 4 1 2 3 2 4 3 4 2 3 5 9 10 8 4 5 4 5 4 1 4 3 3 5 3 4 7 9 8 5 3 2 1 2 2 2 2 2 2 2 2 4 9 10 9 7 3 6 4 2 3 2 3 2 2 1 3 2 5 3 1 2 1 1 1 3 3 4 3 2 10 9 8
20 20 20 20 21 21 22 23 23 23 21 12 2 2 5 5 2 3 1 3 4 2 6 5 6 7 6 5 6 4 6 5 6 4 2 3 1 3 3 9 9 8 4 1 3 4 2 1 2 0 1 1 2 1 2 2 2 5 6 5 5 2 1 0 3 1 1 3 2 0 1 2 5 3 3 1 1 1 4 2 4 3 3 2 2 7 5
19 20 19 20 21 21 22 23 22 23 22 13 3 3 5 4 1 2 3 2 3 5 8 4 4 4 3 4 4 7 2 2 4 3 5 5 5 8 3 7 8 6 3 5 2 2 2 0 2 1 0 0 2 0 1 3 1 2 4 7 7 7 6 4 3 3 2 1 3 2 4 1 4 3 2 3 2 3 3 1 4 2 2 2 1 4 2
19 19 20 20 20 21 22 22 22 23 22 17 4 3 7 6 3 1 4 5 5 4 3 4 0 1 1 3 4 4 5 3 4 2 3 5 7 5 10 10 4 4 8 4 4 2 2 4 1 1 2 2 0 2 2 2 2 4 7 5 9 8 2 1 3 3 2 3 3 4 3 2 2 3 4 4 1 4 3 3 3 5 1 1 2 4 3
18 19 19 19 20 20 22 21 22 22 22 18 5 3 4 6 3 1 4 4 4 4 4 3 4 4 7 1 3 2 1 2 2 0 1 2 3 5 8 8 10 4 4 3 3 3 3 3 2 2 1 3 2 1 1 2 2 3 3 4 3 3 2 3 1 2 1 3 1 2 1 1 2 3 5 4 4 2 5 4 4 3 2 3 4 6 5
18 19 19 20 19 20 21 21 21 21 21 19 6 1 4 6 6 3 6 4 4 4 5 1 1 3 1 1 2 0 1 1 2 1 3 2 3 4 3 3 2 5 7 2 3 3 2 1 0 1 1 2 2 2 2 2 3 2 2 1 1 3 1 1 1 2 1 0 2 1 1 0 3 3 4 4 2 5 2 4 1 4 6 4 4 7 7
18 18 19 19 19 19 20 21 21 22 21 20 8 3 3 4 6 6 4 4 1 4 3 4 4 6 1 4 5 5 2 2 2 3 2 3 5 4 1 2 1 3 3 3 3 1 1 2 1 1 1 2 3 0 3 2 2 3 2 2 1 3 1 1 1 1 1 0 2 1 2 2 4 6 1 2 1 2 5 6 3 2 6 5 5 5 5
17 18 18 18 19 19 20 20 21 21 20 20 9 2 4 3 5 5 3 3 4 3 3 1 1 2 1 3 1 4 3 5 5 5 2 2 4 1 3 1 5 4 4 3 2 2 1 1 1 2 1 1 2 1 2 1 3 3 3 3 4 4 0 1 1 1 0 1 1 1 3 3 5 3 0 2 5 6 4 6 7 4 3 4 4 5 4
17 17 17 17 18 18 19 20 20 19 20 19 10 2 5 6 3 4 1 2 4 3 1 2 1 2 3 1 2 3 1 1 2 2 2 2 5 4 3 1 2 1 1 1 1 1 1 1 1 1 1 2 1 2 1 1 1 2 1 2 1 7 2 2 1 2 1 1 3 2 1 3 5 5 9 7 7 5 3 5 5 4 3 1 3 4 3
16 16 17 16 17 17 18 18 19 19 19 18 9 5 3 6 7 5 1 4 2 0 2 2 1 2 1 1 2 1 3 0 3 1 4 2 1 2 3 3 3 0 0 1 2 2 1 1 2 1 2 3 2 2 3 2 1 2 2 5 3 2 2 1 4 5 7 8 7 3 1 3 5 6 5 5 5 4 4 4 4 2 2 2 3 3 3
15 16 16 16 16 16 17 18 18 18 18 16 6 3 4 3 5 6 4 5 2 2 2 5 4 3 3 6 4 4 1 1 2 2 1 2 2 1 0 1 1 1 1 1 0 1 1 1 2 1 2 1 1 1 1 2 2 1 1 2 1 2 0 1 4 3 0 2 2 2 4 3 2 3 4 3 3 2 1 3 2 2 3 4 4 4 4
15 15 15 15 15 16 16 16 17 17 16 15 8 2 2 2 4 4 2 1 2 2 2 2 1 2 4 3 3 2 1 1 1 1 3 4 5 3 3 2 1 2 3 1 2 2 1 1 1 1 2 1 2 1 2 1 2 1 1 1 0 2 1 3 3 2 1 3 6 2 2 0 1 0 3 4 3 4 3 3 4 5 4 4 3 1 4
15 14 13 14 15 15 16 16 16 15 14 13 6 4 5 3 5 1 4 4 3 2 2 1 1 2 4 2 3 3 3 4 1 6 7 2 1 2 5 3 1 3 2 1 1 1 1 2 1 1 1 1 2 0 1 3 2 1 1 2 2 1 3 1 1 3 4 4 2 1 3 2 2 2 0 1 2 4 5 5 5 5 6 6 6 6 3
15 15 14 14 14 15 15 15 14 13 13 9 3 2 3 2 3 6 4 2 1 1 2 1 3 5 4 4 2 4 3 3 2 5 5 5 4 4 4 3 3 1 2 2 3 2 2 1 1 3 2 2 1 2 1 1 1 1 2 1 0 2 3 2 4 5 3 3 6 8 4 2 5 4 3 3 1 4 5 5 5 4 4 3 3 2 2
16 15 14 14 15 15 15 15 14 12 12 7 2 2 1 3 3 2 0 1 3 2 2 1 0 3 2 1 3 3 4 3 3 5 4 4 5 5 5 4 4 3 3 2 2 2 2 2 4 0 0 1 0 2 1 1 2 1 2 2 2 1 4 3 2 2 2 3 7 6 3 3 1 4 5 3 4 5 6 5 5 4 3 3 1 1 1
14 14 14 15 15 15 14 13 13 11 11 6 0 1 1 1 2 2 2 1 3 3 2 1 2 2 1 1 7 4 4 5 5 4 3 4 6 7 6 6 4 3 3 3 2 1 0 1 0 1 1 0 0 1 1 1 1 0 1 1 1 2 1 1 2 4 3 2 6 5 1 2 3 3 4 4 3 4 5 4 3 3 3 2 1 1 2
14 14 15 15 15 14 14 13 12 9 7 2 2 3 2 1 1 1 4 3 2 2 0 0 1 0 2 2 4 3 4 4 4 5 6 4 4 4 2 3 3 1 3 1 0 1 0 0 0 1 1 2 0 1 1 1 0 1 1 2 1 1 1 0 0 2 3 1 4 2 3 3 3 4 3 3 2 3 4 4 3 3 2 2 1 1 1
16 16 16 16 15 14 13 12 10 6 4 1 2 2 2 1 1 2 3 3 0 2 1 0 0 2 1 1 0 4 6 5 4 4 4 3 3 2 1 0 2 1 0 0 0 0 0 1 0 1 1 2 1 0 1 1 0 1 2 2 2 2 3 2 1 1 3 4 5 4 4 4 4 5 3 3 3 3 4 2 3 1 2 2 0 1 1
16 16 16 16 15 13 12 11 7 4 2 3 4 2 2 1 4 7 5 1 1 1 1 1 1 1 1 3 2 1 2 2 2 2 2 2 2 2 2 2 1 2 2 1 0 1 1 0 0 1 0 2 2 1 1 1 1 1 1 3 2 3 2 3 4 4 4 7 9 6 4 2 3 2 2 5 4 3 3 3 2 1 1 1 1 0 1
17 17 17 15 14 13 12 8 1 3 0 1 1 2 2 4 6 5 1 2 2 2 1 2 1 0 0 0 4 2 3 1 3 4 2 3 2 3 1 2 1 2 3 1 1 0 0 1 0 1 2 1 0 1 1 1 3 2 1 0 1 3 4 3 3 3 4 1 2 0 2 3 6 5 2 6 6 5 3 2 2 2 2 2 2 2 2
18 17 16 14 13 12 8 2 6 7 3 2 3 2 3 9 5 2 2 4 3 1 1 2 0 0 1 3 2 1 4 2 1 2 1 2 1 0 1 1 2 0 3 2 0 0 1 0 0 0 1 1 1 0 1 2 4 2 1 1 2 3 4 4 3 3 2 1 1 2 2 2 3 5 4 5 5 2 2 2 3 3 3 2 2 1 0
18 17 15 13 11 4 5 5 3 2 2 1 1 1 4 11 4 2 3 1 0 2 2 1 1 1 0 2 2 1 2 1 1 2 1 2 2 3 1 1 1 1 1 1 1 1 0 1 1 1 1 2 0 1 2 4 4 1 1 3 3 5 4 4 3 3 2 2 3 4 4 6 8 6 7 7 5 4 4 3 2 3 2 1 1 1 1
18 15 14 9 1 3 2 2 4 2 3 2 1 5 13 7 3 3 2 3 1 2 2 0 0 0 1 1 1 0 2 2 1 1 1 1 1 2 1 1 0 1 1 1 0 0 0 2 1 0 1 0 2 2 2 4 3 2 4 5 7 7 4 5 6 6 4 3 4 4 4 5 7 7 6 5 4 4 4 4 2 2 1 1 1 1 2
16 14 7 2 1 2 4 0 2 3 1 4 8 13 11 3 1 1 3 2 2 2 2 2 1 1 1 0 1 3 2 1 3 1 2 2 2 1 2 1 0 2 1 0 1 1 1 1 0 0 1 2 2 4 4 3 4 3 4 5 5 3 4 5 7 9 7 6 5 4 4 5 4 4 6 5 5 4 4 4 4 3 3 2 2 2 2
12 6 3 2 2 2 1 1 1 4 8 10 6 1 3 3 0 2 2 2 3 2 3 1 0 1 0 0 0 1 1 1 1 1 0 0 0 0 0 1 1 1 1 1 1 1 1 2 1 0 2 4 4 5 5 4 5 3 3 2 5 6 5 7 8 8 7 5 4 4 3 4 4 5 6 6 5 5 4 3 2 2 3 3 4 3 4
5 3 4 3 2 0 1 1 4 10 5 1 1 1 0 1 1 1 1 1 1 1 1 0 1 1 1 1 2 0 2 1 0 1 1 1 0 1 1 1 0 0 1 1 0 0 1 0 0 1 2 2 2 1 1 3 3 3 3 3 4 6 6 6 6 6 6 3 2 5 6 5 6 7 5 4 4 3 2 2 3 3 3 4 4 3 3
5 7 2 2 1 1 3 4 7 4 1 1 2 1 0 1 1 0 1 1 1 0 0 1 0 0 2 2 1 0 1 2 1 1 0 0 1 1 0 0 0 0 0 0 1 3 0 1 0 1 2 1 1 1 2 3 3 1 2 3 5 7 6 5 5 1 2 2 2 2 4 5 5 5 6 5 4 4 4 4 4 3 3 4 3 3 3
4 2 2 1 2 3 5 6 4 1 1 1 1 2 1 1 1 0 0 1 0 0 0 1 0 0 1 1 1 1 1 2 1 1 0 1 0 1 1 0 0 0 0 1 0 1 1 1 0 1 2 1 2 3 4 2 1 0 1 2 4 4 6 4 3 3 4 3 2 2 2 2 3 3 4 5 5 4 3 3 3 3 3 3 4 4 2
2 2 1 1 4 4 4 1 2 1 1 0 2 1 1 1 1 1 0 1 1 1 2 0 1 1 1 2 1 2 0 0 1 0 0 0 0 0 0 1 1 0 1 0 1 0 0 1 1 2 3 4 2 3 3 3 1 2 3 3 3 4 4 4 4 3 3 4 2 2 3 4 4 3 4 4 4 4 3 3 3 4 5 4 3 4 2
3 2 2 1 1 1 1 1 2 2 1 2 2 1 2 2 1 0 1 0 0 0 2 2 2 2 1 0 2 2 1 1 1 0 0 0 0 1 1 1 1 0 0 1 0 1 0 1 1 2 1 4 2 4 4 3 1 0 2 2 3 3 4 5 4 4 4 4 4 4 4 4 4 3 3 3 3 2 2 3 4 3 3 3 3 3 2
2 1 1 1 0 1 0 1 1 1 2 1 2 1 1 1 0 1 0 1 1 0 2 4 4 3 2 0 0 1 0 1 1 1 1 0 0 0 1 0 1 1 1 0 1 1 1 1 3 2 3 4 3 2 3 2 1 2 2 2 2 3 3 3 3 3 2 2 2 2 2 3 3 2 2 2 4 4 3 3 3 4 3 2 3 3 3
1 2 2 1 1 1 1 1 2 2 1 1 1 1 2 1 1 1 1 0 1 3 1 0 1 1 2 2 0 0 0 0 0 0 1 0 0 0 1 1 0 1 0 1 1 1 1 2 1 2 4 4 5 1 2 3 2 4 3 3 4 4 4 5 5 3 3 4 5 4 4 4 3 3 3 3 3 3 3 4 3 2 2 3 3 3 2
3 1 1 2 2 2 2 1 1 1 0 2 1 3 2 1 1 1 1 1 1 3 5 4 2 1 1 1 0 1 0 0 0 0 1 1 0 1 0 0 1 0 0 0 0 2 3 2 2 2 2 4 4 4 3 3 3 2 4 6 7 6 6 6 5 5 4 4 4 5 4 3 4 4 4 4 3 3 4 5 3 3 2 3 3 3 2
1 1 2 1 2 1 0 1 0 1 1 2 2 3 2 1 2 2 1 1 2 2 3 2 2 2 1 1 0 0 0 0 1 0 1 0 1 0 1 0 1 0 1 1 3 3 3 2 3 3 4 4 4 4 4 3 2 4 5 3 3 6 5 5 5 5 4 3 4 4 4 4 4 3 2 2 3 4 4 4 4 4 4 5 3 1 2
1 1 0 1 1 0 1 0 1 1 1 0 1 0 0 1 1 1 1 2 2 1 2 2 0 0 1 0 0 1 1 0 1 1 1 0 1 0 1 0 1 1 2 1 2 2 2 1 1 3 3 2 3 5 4 3 2 4 5 5 5 5 6 6 6 5 5 5 5 5 5 5 4 4 4 5 4 3 3 4 3 3 3 3 3 3 3
2 1 0 1 1 1 0 0 0 2 1 1 1 1 0 1 2 3 2 1 1 2 2 1 1 1 1 0 0 0 1 1 1 1 0 0 1 2 1 2 1 2 2 4 2 1 1 1 2 3 4 4 3 3 4 3 3 4 5 7 7 5 4 5 6 5 5 5 5 5 5 5 4 4 4 3 4 5 3 2 2 2 3 3 4 4 4
2 2 1 1 0 0 0 0 1 0 1 1 1 0 1 1 3 3 1 1 1 1 1 0 0 0 0 0 1 0 1 0 1 0 0 2 1 1 1 3 4 4 1 1 2 3 3 3 1 2 4 3 4 3 3 3 2 4 5 5 5 5 5 6 5 5 6 6 6 7 6 4 5 5 6 7 5 3 2 3 3 3 2 4 4 5 5
1 1 1 0 0 0 3 1 2 1 0 1 1 1 3 2 2 2 1 0 2 2 1 0 0 0 0 1 1 1 1 1 0 2 2 2 1 2 2 4 3 4 3 1 2 2 2 1 1 2 3 3 4 5 4 3 3 4 4 4 5 6 5 6 6 5 6 6 5 5 6 7 7 7 5 3 2 3 4 5 4 3 2 3 4 5 5
1 1 0 0 0 1 1 3 0 2 4 3 2 2 2 2 2 2 1 1 1 1 1 0 0 0 1 3 2 0 1 0 1 0 2 2 2 2 3 3 2 0 2 2 3 2 3 3 3 5 4 4 5 5 6 5 4 3 4 4 4 5 6 6 7 7 6 5 6 7 7 6 4 3 3 4 4 3 5 5 4 3 3 3 4 5 5
Wind_Direction
356 354 352 350 351 349 346 346 344 346 348 2 349 320 8 32 54 269 339 29 185 341 58 272 93 288 299 325 246 271 334 222 277 121 19 126 29 355 200 208 193 240 244 199 203 225 213 195 219 104 119 155 254 223 358 321 326 126 344 37 163 121 59 81 63 77 236 262 216 213 336 215 127 57 50 173 173 204 186 175 158 151 131 174 143 213 108
356 355 354 352 353 350 348 346 345 345 355 337 300 19 82 194 316 323 7 5 174 61 80 341 335 305 313 41 292 18 132 31 16 96 11 44 341 182 165 80 78 340 27 128 213 273 195 27 75 123 96 104 98 11 92 340 24 334 190 104 223 129 303 101 91 90 77 38 177 249 339 79 60 67 23 347 86 78 103 108 24 143 198 287 174 204 156
357 356 354 353 354 352 350 348 344 347 349 3 191 31 237 248 215 282 298 346 27 73 212 231 260 304 324 342 37 356 20 39 315 198 86 53 64 154 105 13 322 69 12 81 47 34 349 104 10 40 65 92 25 7 36 134 58 351 17 76 85 78 314 122 159 165 175 180 188 179 161 126 53 50 9 19 272 135 158 149 174 209 146 170 206 163 88
358 357 355 354 356 355 353 349 346 346 351 4 119 143 336 28 36 331 329 16 18 67 340 60 230 230 348 46 7 1 336 185 11 76 78 22 70 41 324 5 18 54 124 64 33 24 19 342 95 22 56 16 44 7 331 30 123 49 60 36 70 112 90 17 35 176 132 21 336 349 301 178 112 67 34 0 348 325 65 76 151 208 152 191 198 12 139
359 357 355 354 357 358 356 353 348 347 348 4 128 45 58 136 63 332 347 320 45 25 26 17 6 351 280 77 348 0 347 282 47 30 106 24 48 52 42 11 204 7 78 138 93 25 351 32 87 23 338 325 311 309 327 35 19 355 188 347 84 80 81 28 79 76 84 134 88 346 17 74 23 31 4 358 352 314 329 159 175 102 124 207 117 197 145
359 358 355 354 359 0 359 356 352 349 345 348 137 34 346 59 293 226 320 359 346 354 18 357 346 20 81 52 348 19 16 34 31 338 43 151 33 10 65 29 31 286 240 121 91 353 41 32 44 317 34 314 350 29 29 63 353 24 82 340 96 116 88 308 74 80 71 35 31 30 68 69 84 59 12 20 352 24 43 37 39 324 216 234 136 150 106
360 358 355 354 359 2 2 0 355 351 346 346 61 76 356 88 17 152 327 76 348 343 321 333 356 30 17 116 26 30 26 40 23 353 317 27 15 2 95 11 9 13 313 113 104 5 116 46 25 46 8 44 330 34 332 51 21 27 72 27 109 106 354 124 12 121 74 28 25 41 59 66 50 29 29 9 51 57 64 48 12 12 72 72 114 93 83
0 359 356 355 358 3 5 4 0 353 346 328 67 48 11 26 352 5 11 108 180 334 10 359 6 45 358 59 12 22 8 34 9 20 16 24 7 354 74 19 13 26 47 49 78 34 31 54 71 332 1 69 29 92 62 315 330 28 53 88 315 111 201 182 201 99 352 342 19 76 73 67 67 41 38 38 40 65 60 99 82 85 77 77 88 92 79
2 2 358 356 358 4 7 7 6 359 347 45 44 65 31 287 131 285 339 46 359 347 14 13 14 39 3 38 359 24 2 9 352 76 36 52 31 357 353 332 330 29 50 63 77 20 347 298 340 343 320 62 313 16 165 122 318 354 19 10 349 66 136 70 104 124 278 330 1 34 73 76 88 40 356 3 15 28 17 31 352 309 142 141 115 86 89
5 5 1 358 358 3 8 10 10 7 351 93 21 44 320 201 178 44 175 71 349 18 309 9 314 46 356 9 353 7 351 357 321 103 48 49 46 11 320 303 61 39 35 28 359 318 277 269 276 296 275 269 293 248 307 270 278 5 46 250 46 113 132 155 142 148 210 38 73 73 72 40 331 272 89 64 51 125 120 74 42 8 319 138 156 115 108
7 6 3 1 359 3 9 11 12 15 14 40 25 27 358 14 348 346 43 82 12 15 338 32 45 34 306 350 357 360 2 10 16 63 358 358 15 8 348 23 34 82 68 343 314 282 265 269 281 223 230 238 238 71 121 84 32 338 320 69 62 116 142 144 154 157 124 87 106 125 120 196 214 27 287 253 86 177 104 37 2 6 337 49 48 111 121
9 7 5 3 0 3 8 11 13 19 34 52 180 81 17 201 122 151 62 73 34 336 41 55 17 350 10 349 212 333 2 357 347 339 32 354 347 349 16 29 24 45 44 324 299 283 233 176 110 80 46 51 91 87 70 65 43 30 325 69 109 94 70 95 36 114 134 125 133 117 191 207 20 336 12 222 170 100 97 82 50 47 83 102 97 103 106
8 8 5 2 1 1 8 10 12 15 18 48 31 36 342 100 134 78 87 97 46 358 1 35 360 5 3 4 14 327 330 285 291 315 25 9 349 20 33 22 7 301 327 323 322 245 138 148 49 24 32 58 84 66 49 40 30 21 56 39 85 128 108 141 63 72 77 123 161 165 208 15 314 32 67 57 82 108 103 72 47 28 19 73 106 111 115
7 6 5 2 1 359 4 9 10 11 13 19 66 41 350 328 9 41 73 93 43 3 250 252 349 3 5 12 348 313 305 0 332 314 34 19 356 15 348 16 326 298 310 301 344 41 133 63 105 136 104 23 40 62 43 61 33 25 14 8 34 110 102 102 96 322 167 152 169 16 345 258 125 166 184 31 155 88 349 112 53 14 352 40 118 122 126
9 6 5 2 0 359 1 7 8 9 10 16 142 61 26 25 47 110 181 76 105 71 28 33 321 321 325 354 357 2 32 350 2 360 323 255 34 5 307 330 325 325 307 280 11 44 69 93 64 90 94 166 187 130 33 54 26 36 27 25 39 22 117 158 98 28 91 139 120 90 55 238 191 129 95 203 226 335 248 106 99 48 34 356 112 126 137
7 6 5 3 360 359 1 4 5 8 9 7 94 18 63 20 122 81 82 122 128 40 358 343 272 276 321 351 350 43 4 347 346 288 342 14 344 340 339 335 328 329 17 59 53 51 18 59 164 118 165 5 12 66 113 3 54 112 53 25 58 54 59 114 144 137 91 97 159 199 186 230 31 78 343 343 328 242 198 215 125 85 18 34 129 112 101
6 5 4 2 0 359 1 3 3 6 8 9 359 9 31 13 2 82 75 46 62 92 263 309 305 203 284 355 7 30 3 13 354 9 1 358 339 308 309 339 292 20 19 80 12 42 41 62 63 74 88 327 350 49 22 44 12 351 355 16 36 51 13 60 109 136 173 146 180 221 199 81 81 332 316 339 3 162 196 200 174 115 8 68 104 85 66
6 5 2 1 0 359 1 2 4 4 6 7 31 28 21 358 47 196 54 80 101 64 359 340 351 21 37 338 7 317 313 342 26 145 309 315 317 0 335 346 349 21 12 71 355 73 58 41 56 57 71 37 291 284 106 20 57 4 347 350 8 7 32 17 119 124 118 158 90 31 236 240 278 301 313 342 206 224 195 216 103 142 91 77 76 68 53
5 4 1 2 360 360 0 2 4 4 5 5 1 65 35 9 356 56 110 80 65 83 315 286 218 82 175 123 95 118 42 40 284 37 333 353 24 346 289 286 351 353 6 58 47 54 57 69 178 3 27 23 22 59 337 41 4 343 290 40 85 62 52 114 130 55 107 94 139 103 36 33 339 298 303 291 178 181 211 68 291 106 105 84 64 73 54
1 1 0 0 360 360 1 2 3 4 4 6 14 80 275 344 20 17 51 88 50 78 331 358 1 36 313 52 32 28 3 65 31 62 34 0 332 343 190 27 61 356 1 12 64 343 52 47 15 306 55 50 58 33 78 67 36 13 26 326 53 9 25 44 71 130 118 118 91 154 207 93 350 314 268 14 254 47 107 129 105 103 95 96 84 74 74
357 357 359 358 359 0 2 3 3 4 4 3 12 54 9 348 23 20 37 128 99 78 16 331 204 320 110 80 167 141 84 36 355 11 24 298 310 282 68 278 326 358 15 9 42 32 23 76 43 56 30 350 10 215 106 134 68 65 9 43 63 348 254 104 108 338 269 122 152 68 17 340 338 287 74 49 65 116 127 112 114 117 115 94 100 77 71
354 354 355 357 357 359 0 2 3 4 3 2 7 38 50 338 4 8 341 53 86 98 110 308 310 270 269 301 184 166 56 210 307 257 333 33 3 34 115 63 1 354 26 236 94 116 64 101 195 54 64 55 48 53 310 82 100 6 32 295 96 358 33 339 94 32 9 41 101 139 349 6 19 68 92 91 87 86 80 81 90 107 90 84 72 72 72
353 351 352 353 354 355 358 1 3 5 3 4 11 63 40 322 339 346 223 60 29 77 344 2 342 283 299 229 170 248 305 30 143 76 160 112 65 40 47 23 42 299 153 290 23 75 40 43 63 54 96 37 38 101 70 50 101 3 65 8 80 91 70 344 71 83 99 62 61 86 20 23 55 43 43 76 71 47 65 86 96 81 108 98 95 94 100
353 351 348 350 350 351 355 359 2 5 4 6 33 8 2 345 328 340 21 63 87 86 356 12 61 354 302 314 331 358 53 75 355 310 223 182 87 40 195 255 231 219 34 15 284 319 103 50 64 298 75 18 265 44 100 85 49 51 80 102 61 40 308 112 104 145 292 105 160 124 116 135 64 72 61 56 63 46 61 95 81 82 69 72 60 65 67
353 351 348 346 346 347 351 355 359 1 6 4 5 116 193 20 10 1 55 93 25 91 121 325 348 257 300 291 283 288 28 313 288 141 92 69 85 94 74 27 182 18 15 85 177 105 44 95 126 98 85 13 297 79 332 93 120 322 86 53 283 92 191 87 95 83 66 111 150 138 53 331 25 156 147 139 126 90 65 70 84 92 73 69 62 67 63
351 351 349 344 343 345 349 353 355 359 2 9 27 32 48 17 313 242 80 76 99 111 103 18 293 323 306 332 42 312 327 10 323 52 46 55 76 52 137 167 112 36 94 80 210 80 98 71 62 45 93 89 287 86 78 11 64 349 27 85 359 339 282 114 196 106 91 71 76 105 144 134 160 140 115 52 120 113 94 86 91 85 76 65 51 47 51
348 347 345 346 345 344 346 347 352 354 0 10 25 33 74 96 338 24 48 320 136 5 30 119 297 310 2 2 301 327 16 343 31 63 51 27 64 65 83 100 94 26 60 67 42 115 68 96 51 56 19 53 358 54 347 148 65 88 94 81 190 205 112 116 129 111 150 174 169 167 161 182 185 199 171 156 150 113 108 100 95 102 113 111 105 86 68
347 344 342 342 342 339 340 343 345 349 353 15 55 60 321 64 2 353 108 97 7 163 154 243 203 317 309 227 329 334 341 349 56 74 57 23 40 54 68 72 80 25 16 10 36 32 6 52 68 209 325 224 224 69 19 121 198 117 67 57 340 54 139 166 139 161 157 191 171 177 64 64 47 161 150 148 145 147 141 140 131 132 133 136 77 36 354
342 341 339 338 336 336 335 337 341 344 348 358 78 23 8 42 309 329 18 175 107 95 84 253 266 344 73 280 325 353 359 32 49 59 69 46 49 52 52 47 67 119 96 80 108 112 52 47 269 35 31 51 132 95 283 39 23 108 83 56 154 350 200 328 55 112 32 37 159 155 65 52 120 123 121 134 150 141 113 109 108 123 140 152 93 56 345
341 338 335 331 331 332 332 332 337 341 348 17 71 47 45 291 284 358 14 13 46 117 83 107 93 147 308 321 306 320 329 11 46 51 51 57 57 52 34 75 79 46 59 55 25 54 20 25 47 247 297 282 70 83 69 152 175 93 22 275 247 148 185 339 287 20 112 85 135 138 86 86 60 93 88 108 142 134 129 143 147 164 177 146 15 29 28
337 334 330 327 327 328 326 331 334 354 35 81 79 52 42 40 315 161 355 22 318 98 125 105 129 311 359 90 214 333 348 339 7 40 47 50 51 51 43 124 69 296 96 78 43 74 221 66 58 69 81 49 85 126 133 164 148 267 186 180 150 102 96 106 151 41 108 103 93 96 88 94 109 106 91 104 129 132 124 166 191 221 95 152 5 1 0
333 329 325 324 323 323 322 325 330 60 21 49 79 132 145 257 289 314 326 344 236 55 56 64 9 16 333 314 314 311 324 11 358 9 51 349 66 1 37 16 65 18 29 102 111 163 61 62 318 345 324 27 67 91 135 123 173 258 218 196 167 130 121 118 101 101 114 129 125 114 114 120 192 205 171 168 158 163 164 180 180 101 100 136 70 285 287
328 326 323 321 320 319 319 319 327 134 54 192 67 96 188 286 295 303 336 257 57 79 117 80 98 167 269 46 319 1 357 282 29 4 64 3 18 344 57 10 58 74 19 106 23 31 179 162 265 110 63 338 86 135 192 197 225 211 226 18 95 139 126 90 92 101 142 143 337 121 163 182 201 202 161 151 168 176 183 165 116 137 162 199 242 240 199
326 325 322 318 315 322 329 36 119 135 71 69 96 46 360 348 348 349 1 74 91 133 65 99 105 73 284 296 122 13 351 23 12 342 20 51 311 277 348 8 14 127 15 9 48 148 111 220 209 25 229 47 23 128 250 247 243 258 287 241 126 123 120 111 111 131 125 117 61 49 98 105 86 107 137 161 172 125 89 107 153 179 201 238 254 226 306
325 324 319 313 317 351 84 107 87 53 108 85 171 220 312 345 354 358 17 121 79 353 28 32 76 97 18 19 20 297 340 310 345 24 349 8 27 14 350 354 339 50 58 25 56 29 25 46 90 186 145 339 291 256 246 260 259 184 187 154 156 130 114 140 177 147 121 114 115 113 128 134 130 149 167 182 179 159 162 168 197 228 245 221 164 164 222
326 325 319 319 4 121 92 56 41 41 37 0 283 337 330 334 33 38 58 59 38 149 96 294 18 105 130 118 61 7 299 82 36 285 212 287 329 67 36 82 15 88 337 6 220 4 208 35 289 258 44 249 216 211 234 216 246 208 201 198 185 180 170 170 137 131 114 111 118 128 143 157 162 170 182 185 164 171 190 182 161 183 233 248 210 236 243
332 326 330 51 84 50 40 29 324 56 61 272 292 303 309 326 265 84 3 45 21 48 99 161 73 180 174 4 263 271 332 27 347 332 359 359 337 319 359 43 24 334 326 15 15 37 55 40 105 103 201 203 248 233 249 225 222 215 210 213 181 152 112 114 130 132 123 118 125 149 170 175 175 176 189 192 182 175 181 215 210 210 230 228 245 271 301
338 3 60 23 46 52 22 356 5 323 306 298 311 246 15 31 64 343 359 33 311 26 6 21 95 86 334 270 80 334 309 94 354 345 318 235 262 53 1 51 343 306 341 304 321 10 354 41 23 291 272 256 280 274 255 232 236 241 251 193 168 165 138 137 143 136 134 143 166 167 172 200 210 196 198 197 181 192 209 228 220 223 236 244 258 271 286
22 31 48 33 83 113 182 224 330 325 306 254 7 90 316 4 60 16 356 302 348 42 314 348 48 189 155 211 291 310 29 10 6 35 11 71 56 348 8 8 4 199 15 340 100 350 270 59 24 356 263 295 319 355 324 266 267 239 239 227 171 163 151 156 169 157 173 211 215 189 197 205 212 214 202 205 196 209 201 212 228 223 226 242 252 255 265
24 32 24 9 61 273 286 277 323 324 108 82 348 94 90 321 83 9 306 39 6 337 322 26 46 221 241 289 292 26 61 312 328 329 54 332 132 336 303 163 5 335 329 321 310 359 281 285 335 350 287 270 245 280 326 323 312 325 185 178 158 162 172 165 182 203 162 135 117 157 192 205 213 221 191 194 197 206 216 224 230 234 233 246 256 269 260
30 52 28 58 269 313 306 315 321 69 56 59 17 14 59 36 37 214 42 76 139 270 203 340 111 190 109 354 183 271 94 114 90 53 173 358 12 102 56 32 354 282 306 241 327 66 78 96 48 248 272 253 289 339 325 329 312 62 155 156 156 161 172 169 160 161 159 162 178 186 197 215 205 198 188 184 187 202 213 219 228 232 238 249 245 239 248
260 244 196 250 291 293 307 302 60 44 33 78 110 354 291 242 272 18 51 81 37 300 44 305 6 0 349 207 267 219 176 352 114 107 91 17 28 355 178 339 0 71 270 214 53 64 76 259 298 281 251 255 266 297 303 306 294 194 186 181 169 166 164 163 157 174 201 205 194 192 176 177 182 182 176 176 192 205 205 208 237 240 244 256 262 267 258
318 244 173 267 314 320 315 53 334 89 77 3 34 43 350 50 357 59 328 304 275 91 348 215 243 237 267 277 259 194 320 218 291 8 52 313 34 51 75 36 47 263 234 32 268 57 28 226 231 256 271 289 319 306 293 263 261 248 233 211 196 184 166 160 171 174 189 201 202 196 173 170 184 172 168 169 168 175 209 225 239 260 263 263 260 255 253
86 76 99 327 34 304 49 74 296 58 36 54 97 113 308 45 337 19 46 11 348 52 36 352 349 2 0 59 311 23 330 156 64 87 70 42 53 320 53 240 232 358 40 18 41 242 270 255 238 283 313 307 292 257 289 293 224 188 204 203 168 149 137 127 129 149 154 166 188 181 183 174 156 136 161 181 192 216 231 231 231 244 261 266 255 247 240
143 7 30 25 29 281 65 311 330 101 102 284 123 141 140 111 220 200 44 277 220 339 353 193 315 333 318 323 103 152 74 245 28 91 259 241 340 100 151 268 259 24 5 276 326 310 322 269 251 240 267 283 295 306 294 282 231 203 182 163 184 169 166 176 179 179 177 183 178 167 183 178 177 189 193 200 194 211 228 259 245 216 229 241 260 260 205
64 104 45 74 4 335 93 153 331 66 313 151 143 187 170 179 152 217 224 137 288 323 332 334 316 248 261 260 245 284 353 83 297 231 132 88 108 256 221 134 121 281 337 74 356 252 240 269 304 304 288 273 288 308 302 283 254 210 189 193 193 188 196 187 182 187 191 177 171 184 187 171 196 195 210 212 200 210 224 242 245 249 252 248 240 235 179
67 23 82 110 95 276 100 103 257 185 159 177 188 162 116 116 191 251 257 183 272 288 280 261 248 264 299 315 263 259 90 49 228 204 123 219 211 299 61 292 279 187 178 252 247 251 263 250 242 256 280 288 295 294 298 295 243 214 223 231 193 197 188 192 184 191 190 177 174 189 193 193 203 212 214 225 232 223 230 237 242 230 232 247 251 231 185
83 249 85 95 228 206 80 68 307 303 253 311 43 171 1 244 286 21 138 206 241 251 290 318 308 139 213 209 209 270 311 329 264 244 199 231 63 22 16 22 245 243 206 210 239 213 236 260 274 288 281 276 277 293 304 302 251 217 217 228 232 212 197 193 195 193 177 185 189 197 198 200 202 202 210 229 247 248 234 240 234 224 230 233 227 211 193
117 114 121 192 181 147 175 269 38 108 79 9 346 333 17 270 293 285 264 176 224 266 251 216 177 144 270 96 100 4 254 130 234 239 98 70 209 229 177 244 226 272 229 202 241 204 223 231 235 248 269 275 256 248 268 267 268 239 217 216 221 223 212 207 210 193 183 191 195 197 208 203 194 198 211 215 243 260 256 258 248 229 222 214 200 195 188
53 356 22 79 113 299 193 258 43 342 36 48 179 184 145 229 265 274 178 215 262 305 107 116 139 231 327 281 263 257 247 207 216 68 90 222 204 151 111 256 212 202 262 185 221 236 233 234 190 258 248 253 268 256 275 282 224 244 240 229 218 210 216 215 215 200 201 199 197 202 200 188 200 204 204 216 222 241 268 264 259 251 225 211 198 193 198
36 120 233 204 205 200 157 150 168 167 183 201 217 218 176 210 219 266 140 233 28 20 25 289 92 177 202 71 61 254 237 110 152 198 194 221 154 162 199 237 233 195 220 236 252 275 292 287 256 265 284 287 289 293 286 279 259 255 245 232 218 213 211 213 220 215 214 214 208 199 200 207 209 208 208 201 203 227 253 265 258 249 223 203 199 197 194
59 34 295 320 205 189 168 61 341 249 247 263 250 245 168 248 230 248 51 62 55 354 283 115 159 115 154 224 225 243 44 130 229 56 287 245 173 191 214 215 280 292 240 262 273 251 242 256 228 239 262 278 285 288 294 290 272 258 249 236 220 216 215 211 211 215 216 209 205 211 220 216 194 189 174 191 206 217 237 248 248 234 222 216 202 199 201